This demonstration page uses our WeatherBlox Daily Observations layout. Learn more.

Left ArrowRight Arrow

38.20091, -84.87328

Hourly Observations for January 22, 2020

Temp ( °F °C ) Dew Point ( °F °C ) Humidity (%) Winds ( mph kmh ) Pressure ( in mb ) Visibility ( mi km ) Precip ( " mm )
12:53 am 00:53 Clear 17 -8.3 12 -11.1 80 80 Calm 30.47 1032 10 16 0.00 0.00
1:53 am 01:53 Clear 17 -8.3 12 -11.1 80 80 Calm 30.45 1031 10 16 0.00 0.00
2:53 am 02:53 Clear 16 -8.9 12 -11.1 84 84 Calm 30.45 1031 10 16 0.00 0.00
3:53 am 03:53 Clear 14 -10 10 -12.2 84 84 Calm 30.44 1031 10 16 0.00 0.00
4:53 am 04:53 Clear 14 -10 10 -12.2 84 84 Calm 30.42 1030 10 16 0.00 0.00
5:53 am 05:53 Clear 14 -10 10 -12.2 84 84 Calm 30.43 1031 10 16 0.00 0.00
6:53 am 06:53 Clear 14 -10 9 -12.8 80 80 SE 5 7 30.43 1031 10 16 0.00 0.00
7:53 am 07:53 Sunny 16 -8.9 12 -11.1 84 84 ESE 3 6 30.41 1030 10 16 0.00 0.00
8:53 am 08:53 Sunny 21 -6.1 15 -9.4 78 78 SE 5 7 30.41 1030 10 16 0.00 0.00
9:53 am 09:53 Sunny 27 -2.8 19 -7.2 72 72 SSE 7 11 30.40 1029 10 16 0.00 0.00
10:53 am 10:53 Sunny 32 0 20 -6.7 61 61 S 6 9 30.42 1030 10 16 0.00 0.00
11:53 am 11:53 Sunny 33 0.6 18 -7.8 54 54 SW 5 7 30.42 1030 10 16 0.00 0.00
12:53 pm 12:53 Sunny 35 1.7 17 -8.3 48 48 Calm 30.39 1029 10 16 0.00 0.00
1:53 pm 13:53 Sunny 39 3.9 18 -7.8 43 43 undefined N/A 30.35 1028 10 16 0.00 0.00
2:53 pm 14:53 Sunny 41 5 18 -7.8 39 39 VRB 3 6 30.33 1027 10 16 0.00 0.00
3:53 pm 15:53 Sunny 42 5.6 17 -8.3 36 36 SE 6 9 30.30 1026 10 16 0.00 0.00
4:53 pm 16:53 Sunny 40 4.4 18 -7.8 41 41 SE 6 9 30.29 1026 10 16 0.00 0.00
5:53 pm 17:53 Clear 37 2.8 18 -7.8 46 46 SE 6 9 30.29 1026 10 16 0.00 0.00
6:53 pm 18:53 Clear 37 2.8 18 -7.8 46 46 ESE 5 7 30.29 1026 10 16 0.00 0.00
7:53 pm 19:53 Clear 36 2.2 18 -7.8 48 48 ESE 5 7 30.28 1026 10 16 0.00 0.00
8:53 pm 20:53 Clear 35 1.7 18 -7.8 50 50 ESE 3 6 30.28 1025 10 16 0.00 0.00
9:53 pm 21:53 Clear 31 -0.6 19 -7.2 61 61 Calm 30.27 1025 10 16 0.00 0.00
10:53 pm 22:53 Clear 29 -1.7 20 -6.7 69 69 Calm 30.25 1025 10 16 0.00 0.00
11:53 pm 23:53 Clear 30 -1.1 22 -5.6 72 72 Calm 30.25 1024 10 16 0.00 0.00

Powered by AerisWeather